• în Republica Moldova
  • Lista ţărilor
  • Pe 7 zile
  • Temperatura apei
  • Hartă satelitară
  • Meteo pe hartă
  • Widget-uri
  • user-avatar
    Intrare

    Meteo pe oră la Barra

    Astăzi, 27 Februarie, Luni

    Timp Temperatura Precipitaţii Vânt Presiune Umiditate
    00:00 +24°C° 0,3 mm 3 m/s 747 mmHg 92%
    01:00 +25°C° 0,3 mm 3 m/s 747 mmHg 91%
    02:00 +25°C° 0,1 mm 3 m/s 747 mmHg 91%
    03:00 +25°C° 0,1 mm 4 m/s 747 mmHg 91%
    04:00 +25°C° 0 mm 4 m/s 746 mmHg 91%
    05:00 +25°C° 0,2 mm 4 m/s 747 mmHg 91%
    06:00 +25°C° 0,2 mm 4 m/s 747 mmHg 90%
    07:00 +26°C° 0,2 mm 4 m/s 747 mmHg 89%
    08:00 +27°C° 0,3 mm 4 m/s 747 mmHg 81%
    09:00 +29°C° 0,3 mm 4 m/s 748 mmHg 73%
    10:00 +30°C° 0 mm 4 m/s 748 mmHg 66%
    11:00 +32°C° 0,2 mm 5 m/s 747 mmHg 63%
    12:00 +33°C° 0,2 mm 5 m/s 747 mmHg 60%
    13:00 +33°C° 0,2 mm 5 m/s 747 mmHg 58%
    14:00 +33°C° 0,2 mm 5 m/s 746 mmHg 59%
    15:00 +33°C° 0,2 mm 5 m/s 746 mmHg 60%
    16:00 +32°C° 0,2 mm 5 m/s 746 mmHg 61%
    17:00 +29°C° 0,3 mm 4 m/s 746 mmHg 69%
    18:00 +28°C° 0,3 mm 4 m/s 747 mmHg 77%
    19:00 +26°C° 0,3 mm 4 m/s 747 mmHg 85%
    20:00 +25°C° 0,3 mm 4 m/s 747 mmHg 88%
    21:00 +25°C° 0,3 mm 3 m/s 747 mmHg 90%
    22:00 +24°C° 0,3 mm 3 m/s 748 mmHg 92%
    23:00 +24°C° 0,5 mm 3 m/s 748 mmHg 92%

    Mâine, 28 Februarie, Marţi

    Timp Temperatura Precipitaţii Vânt Presiune Umiditate
    00:00 +24°C° 0,5 mm 3 m/s 747 mmHg 92%
    01:00 +24°C° 0,5 mm 3 m/s 747 mmHg 92%
    02:00 +24°C° 0,4 mm 3 m/s 747 mmHg 91%
    03:00 +25°C° 0,4 mm 3 m/s 747 mmHg 90%
    04:00 +25°C° 0,4 mm 3 m/s 747 mmHg 90%
    05:00 +25°C° 0,2 mm 4 m/s 747 mmHg 90%
    06:00 +25°C° 0,2 mm 4 m/s 747 mmHg 90%
    07:00 +25°C° 0,2 mm 4 m/s 747 mmHg 90%
    08:00 +26°C° 0,2 mm 4 m/s 748 mmHg 83%
    09:00 +28°C° 0,2 mm 4 m/s 748 mmHg 76%
    10:00 +29°C° 0,2 mm 5 m/s 748 mmHg 69%
    11:00 +30°C° 0,2 mm 5 m/s 747 mmHg 65%
    12:00 +32°C° 0,2 mm 5 m/s 747 mmHg 60%
    13:00 +33°C° 0,2 mm 5 m/s 747 mmHg 56%
    14:00 +32°C° 0,1 mm 5 m/s 746 mmHg 57%
    15:00 +32°C° 0,1 mm 5 m/s 746 mmHg 59%
    16:00 +32°C° 0,1 mm 5 m/s 745 mmHg 61%
    17:00 +29°C° 0 mm 4 m/s 746 mmHg 69%
    18:00 +27°C° 0 mm 4 m/s 746 mmHg 77%
    19:00 +26°C° 0 mm 3 m/s 746 mmHg 86%
    20:00 +25°C° 0,3 mm 3 m/s 747 mmHg 88%
    21:00 +25°C° 0,3 mm 3 m/s 748 mmHg 89%
    22:00 +24°C° 0,3 mm 3 m/s 748 mmHg 91%
    23:00 +23°C° 0,3 mm 4 m/s 748 mmHg 92%

    Poimâine, 1 Martie, Miercuri

    Timp Temperatura Precipitaţii Vânt Presiune Umiditate
    00:00 +23°C° 0,3 mm 4 m/s 747 mmHg 92%
    01:00 +23°C° 0,3 mm 4 m/s 747 mmHg 93%
    02:00 +25°C° 0,6 mm 3 m/s 747 mmHg 92%
    03:00 +25°C° 0,6 mm 3 m/s 746 mmHg 90%
    04:00 +25°C° 0,6 mm 3 m/s 746 mmHg 89%
    05:00 +26°C° 0,3 mm 3 m/s 747 mmHg 89%
    06:00 +26°C° 0,3 mm 4 m/s 747 mmHg 89%
    07:00 +26°C° 0,3 mm 4 m/s 747 mmHg 88%
    08:00 +27°C° 0,2 mm 4 m/s 748 mmHg 82%
    09:00 +28°C° 0,2 mm 4 m/s 748 mmHg 75%
    10:00 +30°C° 0,2 mm 5 m/s 748 mmHg 69%
    11:00 +32°C° 0,1 mm 5 m/s 747 mmHg 64%
    12:00 +32°C° 0,1 mm 5 m/s 747 mmHg 60%
    13:00 +33°C° 0,1 mm 5 m/s 746 mmHg 55%
    14:00 +33°C° 0 mm 5 m/s 746 mmHg 57%
    15:00 +33°C° 0 mm 5 m/s 745 mmHg 58%
    16:00 +33°C° 0 mm 5 m/s 745 mmHg 60%
    17:00 +30°C° 0 mm 4 m/s 745 mmHg 68%
    18:00 +28°C° 0 mm 4 m/s 745 mmHg 77%
    19:00 +26°C° 0 mm 4 m/s 746 mmHg 86%
    20:00 +26°C° 0,4 mm 4 m/s 746 mmHg 88%
    21:00 +26°C° 0,4 mm 4 m/s 747 mmHg 90%
    22:00 +25°C° 0,4 mm 4 m/s 747 mmHg 92%
    23:00 +25°C° 0,7 mm 4 m/s 747 mmHg 92%

    2 Martie, Joi

    Timp Temperatura Precipitaţii Vânt Presiune Umiditate
    00:00 +25°C° 0,7 mm 3 m/s 746 mmHg 93%
    01:00 +25°C° 0,7 mm 3 m/s 746 mmHg 93%
    02:00 +25°C° 0,8 mm 3 m/s 746 mmHg 92%
    03:00 +25°C° 0,8 mm 3 m/s 745 mmHg 92%
    04:00 +26°C° 0,8 mm 3 m/s 745 mmHg 91%
    05:00 +26°C° 0,6 mm 3 m/s 746 mmHg 91%
    06:00 +26°C° 0,6 mm 3 m/s 746 mmHg 91%
    07:00 +26°C° 0,6 mm 4 m/s 746 mmHg 90%
    08:00 +27°C° 1,5 mm 4 m/s 747 mmHg 86%
    09:00 +28°C° 1,5 mm 4 m/s 747 mmHg 83%
    10:00 +29°C° 1,5 mm 5 m/s 747 mmHg 79%
    11:00 +30°C° 1,5 mm 5 m/s 746 mmHg 75%
    12:00 +32°C° 1,5 mm 5 m/s 746 mmHg 71%
    13:00 +33°C° 1,5 mm 5 m/s 745 mmHg 67%
    14:00 +33°C° 1,5 mm 5 m/s 745 mmHg 67%
    15:00 +32°C° 1,5 mm 5 m/s 744 mmHg 67%
    16:00 +32°C° 1,5 mm 5 m/s 744 mmHg 67%
    17:00 +30°C° 1 mm 4 m/s 744 mmHg 73%
    18:00 +28°C° 1 mm 3 m/s 745 mmHg 80%
    19:00 +26°C° 1 mm 3 m/s 745 mmHg 86%
    20:00 +26°C° 0,8 mm 2 m/s 746 mmHg 88%
    21:00 +26°C° 0,8 mm 2 m/s 746 mmHg 91%
    22:00 +25°C° 0,8 mm 2 m/s 747 mmHg 93%
    23:00 +25°C° 0,6 mm 2 m/s 746 mmHg 93%

    3 Martie, Vineri

    Timp Temperatura Precipitaţii Vânt Presiune Umiditate
    00:00 +25°C° 0,6 mm 1 m/s 746 mmHg 93%
    01:00 +25°C° 0,6 mm 1 m/s 746 mmHg 93%
    02:00 +25°C° 0,2 mm 1 m/s 745 mmHg 93%
    03:00 +25°C° 0,2 mm 1 m/s 745 mmHg 94%
    04:00 +25°C° 0,2 mm 1 m/s 745 mmHg 94%
    05:00 +25°C° 0 mm 1 m/s 745 mmHg 92%
    06:00 +26°C° 0 mm 1 m/s 746 mmHg 91%
    07:00 +26°C° 0 mm 1 m/s 746 mmHg 90%
    08:00 +27°C° 0 mm 1 m/s 746 mmHg 85%
    09:00 +28°C° 0 mm 1 m/s 746 mmHg 81%
    10:00 +29°C° 0 mm 1 m/s 746 mmHg 76%
    11:00 +30°C° 0 mm 2 m/s 746 mmHg 72%
    12:00 +31°C° 0 mm 2 m/s 746 mmHg 67%
    13:00 +32°C° 0 mm 2 m/s 745 mmHg 63%
    14:00 +31°C° 0,1 mm 2 m/s 745 mmHg 68%
    15:00 +31°C° 0,1 mm 2 m/s 745 mmHg 72%
    16:00 +30°C° 0,1 mm 3 m/s 744 mmHg 77%
    17:00 +28°C° 0,2 mm 2 m/s 745 mmHg 83%
    18:00 +27°C° 0,2 mm 2 m/s 745 mmHg 89%
    19:00 +26°C° 0,2 mm 2 m/s 745 mmHg 95%
    20:00 +26°C° 0,1 mm 2 m/s 746 mmHg 95%
    21:00 +25°C° 0,1 mm 1 m/s 746 mmHg 96%
    22:00 +25°C° 0,1 mm 1 m/s 747 mmHg 97%
    23:00 +25°C° 0,1 mm 1 m/s 746 mmHg 97%

    4 Martie, Sâmbătă

    Timp Temperatura Precipitaţii Vânt Presiune Umiditate
    00:00 +24°C° 0,1 mm 1 m/s 746 mmHg 97%
    01:00 +24°C° 0,1 mm 1 m/s 745 mmHg 97%
    02:00 +24°C° 0 mm 1 m/s 745 mmHg 97%
    03:00 +25°C° 0 mm 1 m/s 745 mmHg 97%
    04:00 +25°C° 0 mm 2 m/s 745 mmHg 97%
    05:00 +25°C° 0 mm 2 m/s 745 mmHg 96%
    06:00 +25°C° 0 mm 2 m/s 746 mmHg 95%
    07:00 +26°C° 0 mm 2 m/s 746 mmHg 94%
    08:00 +27°C° 0 mm 2 m/s 746 mmHg 86%
    09:00 +29°C° 0 mm 2 m/s 746 mmHg 78%
    10:00 +31°C° 0 mm 2 m/s 746 mmHg 70%
    11:00 +31°C° 0,3 mm 2 m/s 746 mmHg 70%
    12:00 +31°C° 0,3 mm 2 m/s 745 mmHg 70%
    13:00 +32°C° 0,3 mm 2 m/s 745 mmHg 70%
    14:00 +31°C° 0,9 mm 2 m/s 745 mmHg 74%
    15:00 +30°C° 0,9 mm 2 m/s 744 mmHg 78%
    16:00 +29°C° 0,9 mm 2 m/s 744 mmHg 81%
    17:00 +28°C° 0,9 mm 2 m/s 744 mmHg 86%
    18:00 +27°C° 0,9 mm 2 m/s 745 mmHg 91%
    19:00 +26°C° 0,9 mm 1 m/s 745 mmHg 96%
    20:00 +26°C° 0,5 mm 1 m/s 746 mmHg 96%
    21:00 +26°C° 0,5 mm 1 m/s 746 mmHg 97%
    22:00 +26°C° 0,5 mm 1 m/s 746 mmHg 97%
    23:00 +25°C° 0,6 mm 2 m/s 746 mmHg 97%
    Arată mai mult